Location: ??????
(30.5519°N, 47.7720°E)
Time: 18:05:34
(UTC+00:00)

Cosmos 2298 Rocket - Pass Details

Date: 24 January 2021
Orbit: 775 x 784 km, 74.0° (Epoch: 01 March)

Event Time Altitude Azimuth Distance (km) Brightness Sun altitude
Rises 16:10:24 0° 191° (S) 3,241 7.5 -24.1°
Reaches altitude 10° 16:12:46 10° 190° (S) 2,318 6.7 -24.6°
Enters shadow 16:18:00 77° 110° (ESE) 801 3.8 -25.7°
